Location: ???????
(55.4362°N, 38.1183°E)
Time: 18:17:32
(UTC+00:00)

Meteor 1-29 - Pass Details

Date: 17 June 2021
Orbit: 434 x 457 km, 97.7° (Epoch: 30 July)

Event Time Altitude Azimuth Distance (km) Brightness Sun altitude
Rises 23:22:17 0° 20° (NNE) 2,493 9.1 -7.5°
Reaches altitude 10° 23:24:27 10° 30° (NNE) 1,610 7.5 -7.4°
Maximum altitude 23:27:40 35° 98° (E) 758 4.2 -7.2°
Drops below altitude 10° 23:30:49 10° 166° (SSE) 1,587 5.2 -7.0°
Enters shadow 23:31:58 - 172° (S) 2,048 5.7 -6.9°
